Wind_Speed
5 5 5 5 4 4 4 4 4 4 4 4 4 4 5 5 6 6 7 9 10 12 14 16 18 20 22 24 26 28 29 31 32 34 35 36 37 38 38 39 40 40 40 40 41 41 41 42 44
9 9 9 8 8 7 7 7 7 6 6 5 4 4 4 5 7 8 10 12 14 16 18 20 22 24 26 28 30 32 33 35 36 37 39 40 41 42 43 44 44 45 45 45 45 45 45 45 45
13 13 12 11 10 9 9 8 8 7 6 5 5 5 7 8 10 12 14 16 18 20 23 25 26 28 30 32 34 36 37 39 40 42 43 44 45 47 47 48 49 49 50 50 50 50 50 50 50
14 14 13 12 11 10 9 9 8 7 6 6 7 9 10 12 14 16 18 20 23 25 27 29 30 32 34 36 38 39 41 43 45 46 48 49 50 51 52 53 54 54 54 55 55 55 55 55 55
15 14 13 12 11 10 9 8 6 6 7 9 11 12 14 16 18 21 23 25 27 29 30 32 34 36 37 39 41 43 45 47 49 51 53 55 56 57 58 59 60 60 61 60 60 60 60 60 59
14 13 12 11 10 9 8 7 7 9 11 13 15 17 18 20 22 24 26 28 29 31 33 35 36 38 40 43 45 47 50 52 54 56 58 60 62 63 65 66 67 67 67 67 67 66 66 65 64
13 12 11 9 8 8 8 9 10 12 14 16 19 20 22 23 25 26 28 30 31 33 35 37 39 42 44 47 49 52 54 57 59 62 64 67 69 71 72 73 74 75 75 75 75 74 73 72 70
11 9 8 7 7 8 10 11 13 15 17 19 21 22 24 25 26 28 29 31 33 34 37 39 42 45 48 50 53 56 59 62 65 68 71 73 75 77 79 80 81 81 82 82 81 81 80 79 77
7 6 6 6 8 10 12 14 16 18 20 22 23 24 25 26 27 28 30 32 34 36 39 42 45 48 51 54 57 60 63 67 70 73 75 78 80 82 84 85 87 87 87 87 87 86 85 84 83
4 4 6 8 11 13 15 17 19 21 22 23 24 25 25 26 27 29 31 33 36 38 41 45 48 51 54 57 60 64 67 70 73 76 79 82 85 87 89 90 91 92 92 92 92 92 91 90 89
4 6 9 12 14 17 18 20 22 23 23 24 24 25 26 27 29 30 32 35 38 41 44 47 51 54 57 60 64 67 71 74 77 80 84 87 90 92 93 94 94 94 94 94 94 94 95 94 94
8 11 13 16 18 20 21 23 23 24 24 24 25 25 26 28 30 32 34 37 40 43 47 50 53 57 60 64 67 71 74 78 81 85 89 92 93 95 95 94 94 92 91 91 90 90 91 93 94
12 15 17 19 20 22 23 23 24 24 24 25 25 26 28 29 31 34 36 39 43 46 49 53 56 59 63 67 71 74 79 83 87 91 93 95 95 94 92 89 86 84 83 82 82 82 82 84 86
16 18 19 20 21 22 22 23 23 24 25 25 26 27 29 31 33 36 38 42 45 48 52 55 58 62 66 70 74 78 83 87 91 93 94 93 91 87 83 80 77 75 74 74 73 73 74 75 76
18 19 20 20 21 21 21 22 23 23 24 25 26 28 30 32 35 38 41 44 47 50 54 57 61 65 69 73 77 81 86 89 92 92 90 87 82 78 74 72 71 69 68 67 67 66 67 67 68
19 19 19 20 20 20 21 21 22 23 24 25 27 29 31 34 36 39 42 45 48 52 55 59 64 68 72 76 80 84 88 90 90 88 84 79 75 72 70 68 66 65 64 63 62 61 61 61 62
18 18 19 19 19 20 20 21 22 23 24 26 28 30 33 35 38 40 43 46 50 53 57 61 66 70 74 78 82 86 88 89 87 82 77 73 71 69 67 65 64 62 61 60 59 59 59 58 58
17 17 18 18 18 19 19 21 22 23 25 27 29 31 34 36 39 42 44 48 52 56 60 64 67 71 75 79 83 86 87 86 82 77 73 70 68 66 64 63 61 60 59 59 58 58 57 57 56
16 16 16 17 18 18 18 20 22 23 25 28 30 32 34 37 40 43 46 50 54 58 62 65 69 73 76 80 83 85 85 82 78 74 70 68 66 64 62 61 60 60 59 59 59 58 56 55 55
14 15 15 16 17 17 18 20 23 24 26 28 30 32 35 38 41 45 48 52 56 59 63 67 70 74 77 81 83 84 82 78 74 70 68 66 64 62 61 61 61 61 60 60 59 57 55 54 54
14 14 15 16 16 17 18 20 23 25 27 28 31 34 36 39 43 46 50 54 57 61 64 68 71 74 78 81 82 82 79 76 71 68 65 64 63 61 61 62 62 61 61 60 58 57 56 54 53
13 14 15 16 17 18 20 20 24 26 27 30 32 35 38 41 44 48 52 55 59 62 65 68 72 75 78 80 81 79 76 72 69 65 64 63 62 61 62 63 62 62 61 60 58 57 56 54 52
13 14 15 16 17 19 21 22 25 27 29 31 34 36 39 42 46 49 53 56 59 63 66 69 72 75 78 79 80 77 74 70 67 64 63 62 61 62 63 63 62 61 60 59 57 55 52 50 48
13 14 15 16 17 19 23 25 27 28 30 33 35 38 40 44 47 50 54 57 60 63 66 69 72 75 77 78 78 75 72 68 65 63 62 61 61 62 63 63 62 60 59 57 55 52 48 45 42
13 15 16 18 19 21 24 26 27 29 31 33 36 39 42 45 48 51 54 57 61 64 67 69 72 74 76 77 76 73 70 66 64 62 61 61 61 62 63 62 61 60 58 56 53 49 44 39 36
14 16 18 20 21 20 23 26 28 30 32 35 37 40 43 46 49 52 55 58 61 64 66 69 71 73 75 75 74 71 68 65 63 62 61 61 61 62 63 62 61 59 57 54 51 48 43 37 32
14 16 18 20 21 22 24 27 30 32 34 36 38 41 44 47 50 53 56 58 61 64 66 69 71 72 73 73 72 70 67 64 62 61 61 61 61 62 62 62 60 58 56 53 49 46 42 37 30
15 17 19 22 25 27 27 30 33 35 37 38 40 42 45 48 51 54 56 59 61 64 66 68 70 72 72 72 70 68 65 63 61 60 60 60 61 61 62 62 60 57 55 51 47 44 41 36 28
15 17 20 23 25 29 31 33 35 37 38 40 42 44 46 49 52 54 57 59 61 64 66 68 69 71 71 71 69 67 64 62 61 60 60 60 60 60 61 61 59 57 54 49 46 42 39 33 26
15 17 20 23 25 27 30 33 36 38 40 42 44 46 48 50 52 55 57 59 62 64 66 67 69 70 70 70 68 66 63 61 60 59 59 59 59 60 60 60 59 57 54 50 45 41 36 31 23
Wind_Direction
90 94 92 86 84 78 70 61 59 58 56 43 32 21 10 1 355 347 339 331 326 321 317 313 310 308 306 304 302 301 299 297 295 293 291 289 287 285 282 280 279 277 275 273 271 269 266 264 261
87 89 90 89 87 87 84 81 80 77 72 59 47 32 12 357 345 335 328 326 322 318 314 311 309 307 306 304 302 300 298 297 295 293 291 289 287 284 282 280 278 276 274 272 270 269 267 265 263
91 93 93 93 91 89 88 81 80 76 66 51 30 12 354 343 334 328 325 321 318 314 311 310 309 308 306 304 302 301 299 297 295 293 292 290 288 285 283 281 279 276 274 272 270 268 266 264 263
94 94 93 94 93 90 86 81 71 58 41 20 1 348 340 333 327 323 320 317 314 312 311 310 309 308 306 304 302 301 300 298 297 295 293 291 289 287 285 283 280 278 275 272 270 267 265 263 261
92 93 93 92 90 87 80 69 51 28 8 355 344 336 330 326 323 320 317 314 312 311 311 310 308 307 306 305 304 303 302 300 298 297 295 293 291 289 287 285 282 280 277 274 272 269 266 263 261
93 91 91 89 83 72 58 39 18 359 348 341 335 330 326 322 319 317 315 313 313 312 312 311 310 309 308 307 306 305 304 302 300 299 297 295 293 291 289 287 284 282 279 277 274 271 268 264 262
92 88 84 76 63 46 25 7 353 344 337 332 328 325 321 319 317 316 315 314 314 314 313 313 313 312 311 310 308 307 306 304 303 301 300 298 296 294 291 289 286 284 281 278 276 273 270 266 263
90 83 70 51 30 12 356 346 338 333 329 325 322 321 320 319 318 317 316 316 316 316 315 315 314 313 312 311 310 309 308 306 305 303 301 299 297 294 292 290 287 285 282 280 277 274 271 268 265
81 67 39 13 357 344 338 332 329 325 322 320 320 320 320 319 318 318 318 319 318 318 317 316 315 314 313 312 311 309 308 306 305 303 301 299 296 294 292 290 288 286 283 281 278 275 272 269 266
55 23 354 340 333 329 326 324 322 321 320 320 320 321 321 320 320 321 321 321 320 319 317 316 316 315 314 313 311 309 308 306 304 302 301 299 297 295 293 291 289 287 284 281 279 276 273 270 266
349 335 327 324 323 322 321 321 320 320 320 322 323 323 323 323 324 324 323 322 320 319 318 318 317 316 314 313 311 310 308 306 305 304 302 300 298 296 294 292 290 288 286 284 281 278 275 271 268
319 319 318 318 318 319 320 321 321 323 324 325 327 326 326 326 326 325 324 322 321 320 320 319 317 316 314 313 312 310 309 308 307 305 303 302 301 299 297 295 293 291 288 285 282 279 276 273 269
313 315 316 317 318 319 320 322 324 326 327 328 329 329 328 328 327 326 325 323 322 322 321 319 317 316 315 314 313 312 312 310 309 307 306 305 304 302 301 299 296 293 290 287 284 280 276 273 269
313 314 316 318 320 321 323 325 327 328 329 331 330 330 330 329 328 326 325 324 323 322 321 319 318 317 317 316 316 315 314 312 311 310 309 308 307 305 304 302 299 296 293 290 286 282 278 273 269
315 316 318 320 323 325 327 328 329 329 330 331 331 330 330 330 328 327 326 325 324 322 321 320 320 320 319 318 318 316 315 314 313 312 312 311 310 308 307 305 302 299 296 293 289 285 281 276 271
319 321 322 325 327 329 330 329 331 330 331 331 331 331 331 330 329 327 326 325 324 323 322 322 322 322 321 320 319 318 317 316 316 315 315 314 313 312 310 308 306 303 300 296 292 288 284 279 274
324 325 326 329 331 331 331 330 331 332 332 332 331 331 331 330 328 327 326 325 325 324 324 324 324 324 323 322 321 320 319 319 319 319 318 318 317 316 314 312 309 306 303 300 296 291 287 281 276
328 329 331 332 333 333 331 330 333 333 333 332 332 331 330 329 328 327 327 326 326 326 326 326 326 325 324 323 323 322 322 322 322 322 321 321 320 319 317 315 312 309 306 302 298 294 288 283 277
333 335 335 335 336 336 334 331 334 335 334 333 332 330 330 329 329 329 329 328 328 328 328 327 327 326 326 325 324 324 324 324 324 324 324 323 322 321 320 318 315 311 308 304 300 295 290 284 278
338 340 340 340 339 338 338 333 335 336 335 333 332 331 331 330 331 331 331 330 330 330 329 329 328 327 327 326 326 326 326 326 327 326 326 326 325 324 323 320 317 314 311 307 303 298 292 285 278
344 344 344 343 342 340 341 336 335 337 336 335 334 333 332 332 332 332 332 332 331 331 330 330 329 328 328 328 328 328 328 329 329 329 328 328 327 326 325 322 320 317 314 310 306 300 293 287 279
349 348 348 347 345 342 342 341 338 340 339 336 335 333 333 333 334 333 333 333 332 332 331 331 330 330 330 330 330 330 331 331 331 331 331 330 330 329 327 325 323 321 318 315 310 304 297 289 280
355 354 353 352 349 343 342 343 342 342 340 337 335 334 334 335 335 334 334 334 333 333 332 332 332 332 332 331 332 332 333 333 333 333 333 333 332 331 331 329 327 326 323 320 317 311 304 295 284
4 2 0 357 353 346 344 344 344 343 341 337 336 336 336 336 335 335 335 335 335 334 334 334 333 333 333 333 334 335 335 335 336 336 336 335 335 335 335 334 332 331 329 327 324 320 312 302 289
10 8 6 5 359 351 346 345 346 344 341 339 338 338 337 337 336 336 336 336 336 336 335 335 335 335 335 336 336 337 337 337 338 338 338 338 338 339 339 338 337 336 335 334 332 329 323 313 298
13 11 9 6 3 357 350 348 348 346 343 342 341 339 338 338 338 337 337 337 337 337 337 337 337 337 337 338 338 339 339 339 339 340 340 341 341 342 343 342 342 341 341 340 339 338 334 326 313
18 14 10 8 8 5 358 354 353 351 347 344 342 341 340 340 339 339 339 339 339 338 338 338 338 338 339 340 340 340 341 341 342 342 343 344 344 345 346 346 346 345 345 345 344 344 342 337 328
17 15 12 8 6 7 4 359 357 354 350 346 344 342 341 341 341 340 340 340 340 340 339 339 340 340 341 341 342 342 343 343 344 344 345 346 347 348 349 350 350 349 349 349 348 348 348 346 341
13 13 12 10 7 4 4 359 359 356 353 350 347 344 343 343 342 342 342 341 341 341 341 341 341 342 343 343 344 344 344 345 346 346 347 348 349 351 352 353 353 353 353 353 352 352 352 353 350
5 7 8 8 8 5 3 358 359 357 355 353 350 347 345 344 344 344 343 343 342 342 342 342 343 344 344 345 345 346 346 347 348 348 349 350 352 353 355 356 356 356 357 357 356 355 358 360 2
Height
5886 5887 5888 5889 5890 5891 5890 5890 5890 5889 5889 5889 5888 5887 5887 5886 5886 5887 5883 5880 5879 5877 5875 5873 5871 5869 5867 5865 5862 5860 5858 5855 5852 5850 5847 5845 5843 5841 5839 5837 5835 5834 5832 5831 5830 5829 5828 5827 5827
5887 5888 5890 5890 5891 5891 5891 5890 5890 5890 5890 5889 5888 5888 5887 5886 5885 5883 5881 5879 5877 5875 5872 5870 5868 5865 5863 5860 5857 5855 5852 5849 5846 5843 5840 5837 5835 5832 5830 5828 5826 5825 5823 5822 5821 5820 5819 5819 5818
5889 5890 5891 5891 5891 5892 5892 5891 5891 5890 5890 5889 5889 5888 5887 5885 5883 5881 5879 5876 5874 5872 5869 5866 5864 5861 5858 5855 5852 5848 5845 5842 5838 5835 5832 5828 5825 5823 5820 5817 5815 5813 5812 5811 5810 5809 5808 5808 5808
5892 5893 5893 5893 5892 5893 5892 5892 5891 5891 5890 5889 5888 5887 5885 5883 5881 5879 5876 5873 5871 5868 5865 5862 5859 5856 5852 5849 5845 5841 5837 5833 5829 5826 5822 5818 5815 5811 5808 5805 5803 5801 5799 5798 5797 5796 5796 5796 5796
5894 5894 5895 5894 5894 5894 5893 5893 5892 5891 5890 5888 5887 5885 5883 5881 5878 5875 5873 5870 5867 5863 5860 5857 5853 5850 5846 5842 5838 5833 5829 5824 5820 5815 5811 5806 5802 5798 5795 5792 5789 5786 5784 5783 5782 5781 5781 5781 5781
5896 5896 5896 5895 5895 5895 5894 5893 5892 5890 5889 5887 5885 5883 5881 5878 5875 5872 5869 5866 5862 5859 5855 5851 5847 5843 5839 5834 5829 5824 5819 5814 5809 5803 5798 5793 5788 5783 5779 5775 5772 5769 5767 5765 5764 5763 5764 5764 5765
5898 5897 5897 5896 5896 5895 5894 5893 5891 5889 5887 5885 5883 5881 5878 5875 5872 5868 5865 5861 5857 5854 5849 5845 5840 5835 5830 5825 5820 5814 5808 5802 5796 5790 5784 5778 5772 5766 5761 5756 5752 5749 5746 5744 5743 5743 5743 5744 5745
5899 5899 5897 5897 5896 5895 5893 5892 5890 5888 5886 5883 5881 5878 5875 5872 5868 5864 5860 5856 5853 5848 5844 5838 5833 5828 5822 5816 5810 5803 5796 5789 5783 5776 5769 5762 5755 5748 5742 5736 5731 5726 5723 5721 5719 5719 5720 5721 5723
5900 5900 5898 5897 5896 5894 5892 5890 5888 5886 5883 5880 5877 5874 5871 5867 5863 5860 5856 5852 5847 5842 5837 5832 5826 5820 5814 5807 5800 5792 5785 5777 5769 5762 5753 5745 5737 5729 5721 5714 5708 5702 5697 5694 5692 5692 5692 5694 5697
5900 5900 5898 5897 5895 5893 5891 5889 5886 5883 5880 5877 5874 5870 5867 5863 5859 5855 5851 5847 5842 5836 5831 5825 5818 5811 5804 5797 5789 5781 5773 5765 5756 5746 5737 5727 5717 5708 5699 5690 5682 5676 5670 5666 5663 5662 5663 5665 5668
5900 5899 5897 5895 5893 5891 5888 5886 5883 5880 5876 5873 5870 5866 5862 5859 5855 5851 5846 5841 5835 5830 5823 5817 5810 5802 5795 5787 5778 5770 5760 5750 5740 5729 5717 5706 5695 5684 5674 5664 5656 5648 5642 5636 5633 5631 5630 5632 5635
5899 5897 5895 5893 5891 5888 5885 5882 5879 5876 5873 5869 5866 5862 5858 5854 5850 5846 5840 5835 5829 5823 5816 5808 5801 5793 5785 5776 5767 5756 5745 5734 5722 5709 5696 5683 5670 5658 5647 5636 5627 5619 5612 5607 5603 5600 5599 5599 5601
5898 5896 5893 5891 5888 5885 5881 5878 5875 5871 5868 5865 5861 5858 5854 5850 5845 5840 5834 5829 5822 5815 5808 5800 5792 5783 5774 5764 5753 5741 5729 5716 5702 5687 5672 5658 5644 5631 5620 5609 5599 5591 5584 5578 5574 5570 5568 5568 5569
5896 5893 5890 5887 5884 5881 5878 5874 5871 5868 5864 5861 5857 5854 5850 5845 5840 5834 5828 5822 5815 5807 5799 5791 5782 5773 5762 5751 5739 5726 5712 5697 5681 5665 5649 5634 5621 5608 5596 5585 5575 5567 5559 5553 5547 5543 5541 5539 5539
5893 5891 5888 5884 5881 5878 5875 5872 5868 5864 5861 5858 5854 5850 5845 5840 5834 5828 5822 5815 5807 5800 5791 5782 5772 5761 5749 5737 5723 5709 5694 5678 5661 5645 5628 5614 5600 5587 5576 5565 5555 5545 5537 5530 5524 5519 5516 5513 5513
5890 5888 5885 5882 5878 5875 5873 5869 5866 5862 5858 5854 5850 5845 5840 5835 5829 5823 5816 5808 5801 5792 5783 5772 5761 5749 5736 5722 5707 5692 5675 5658 5641 5625 5609 5595 5582 5569 5558 5546 5536 5526 5518 5510 5504 5498 5494 5491 5489
5888 5885 5882 5879 5876 5872 5870 5866 5863 5859 5855 5851 5846 5841 5836 5830 5824 5817 5810 5802 5793 5784 5773 5762 5749 5736 5722 5707 5691 5675 5657 5639 5622 5605 5591 5577 5565 5552 5540 5529 5519 5509 5500 5491 5484 5478 5473 5470 5467
5886 5883 5879 5877 5874 5871 5867 5864 5860 5856 5852 5847 5842 5837 5831 5825 5819 5811 5803 5795 5785 5775 5763 5751 5738 5725 5710 5694 5677 5658 5640 5622 5605 5589 5575 5562 5550 5537 5525 5514 5503 5492 5483 5474 5466 5459 5453 5448 5446
5883 5881 5878 5875 5871 5868 5865 5861 5857 5853 5849 5844 5838 5833 5826 5820 5813 5805 5796 5787 5776 5765 5753 5741 5728 5713 5698 5681 5664 5645 5627 5609 5592 5576 5562 5548 5536 5523 5511 5499 5488 5477 5466 5456 5447 5439 5433 5428 5424
5881 5879 5876 5873 5869 5866 5863 5859 5855 5850 5846 5840 5835 5828 5822 5814 5807 5798 5789 5779 5768 5756 5744 5731 5717 5702 5686 5669 5651 5633 5614 5597 5580 5565 5550 5536 5523 5510 5498 5485 5473 5461 5450 5439 5428 5419 5412 5408 5403
5879 5877 5874 5871 5868 5864 5861 5857 5852 5847 5842 5837 5830 5823 5816 5809 5800 5791 5781 5771 5759 5747 5735 5721 5707 5691 5675 5657 5639 5620 5602 5585 5569 5554 5540 5525 5512 5498 5485 5472 5458 5445 5432 5420 5409 5399 5392 5387 5383
5878 5875 5872 5868 5865 5862 5859 5855 5849 5844 5838 5832 5826 5819 5811 5803 5794 5784 5774 5763 5751 5739 5726 5712 5697 5681 5664 5646 5628 5609 5592 5576 5560 5545 5530 5515 5501 5487 5473 5458 5444 5429 5415 5402 5390 5378 5369 5363 5360
5876 5873 5870 5866 5862 5859 5855 5851 5847 5840 5834 5828 5821 5814 5805 5797 5787 5778 5767 5756 5744 5731 5717 5702 5687 5670 5653 5635 5617 5599 5582 5565 5550 5535 5521 5506 5491 5476 5461 5446 5430 5415 5400 5385 5372 5359 5349 5341 5337
5874 5872 5868 5865 5861 5857 5852 5847 5843 5836 5830 5823 5816 5808 5800 5791 5781 5771 5760 5748 5736 5723 5708 5693 5677 5661 5643 5625 5607 5589 5573 5557 5542 5527 5513 5498 5483 5467 5451 5434 5418 5402 5387 5371 5357 5343 5332 5323 5318
5873 5871 5867 5863 5859 5855 5849 5843 5840 5833 5826 5819 5811 5803 5794 5785 5775 5765 5753 5741 5728 5715 5700 5685 5668 5652 5634 5616 5598 5581 5565 5549 5534 5519 5505 5490 5474 5458 5442 5425 5408 5392 5376 5359 5344 5331 5319 5309 5303
5871 5868 5865 5861 5857 5853 5847 5841 5837 5830 5822 5814 5806 5798 5789 5780 5769 5758 5747 5734 5721 5707 5692 5677 5660 5644 5626 5608 5590 5573 5557 5542 5527 5512 5497 5481 5466 5450 5433 5416 5399 5383 5366 5350 5336 5322 5310 5299 5292
5870 5866 5863 5859 5855 5850 5844 5838 5832 5824 5817 5810 5802 5793 5784 5774 5763 5752 5740 5727 5714 5700 5685 5669 5653 5636 5619 5601 5584 5567 5551 5535 5520 5505 5490 5475 5459 5443 5426 5409 5393 5376 5360 5344 5330 5317 5304 5293 5284
5868 5865 5861 5855 5850 5846 5841 5834 5828 5820 5813 5805 5797 5788 5778 5768 5757 5746 5734 5721 5707 5693 5678 5662 5646 5629 5612 5595 5577 5561 5545 5529 5514 5499 5484 5469 5453 5437 5421 5405 5388 5372 5356 5341 5327 5314 5301 5290 5281
5867 5863 5858 5853 5847 5841 5836 5833 5825 5817 5809 5801 5792 5783 5773 5763 5751 5740 5727 5714 5701 5686 5671 5656 5640 5623 5606 5588 5572 5555 5540 5524 5509 5494 5480 5465 5449 5434 5418 5401 5385 5369 5354 5339 5325 5312 5300 5289 5280
5864 5860 5856 5852 5846 5840 5834 5831 5821 5813 5805 5797 5788 5778 5768 5757 5746 5734 5721 5708 5694 5680 5665 5650 5634 5617 5600 5583 5567 5551 5535 5520 5505 5491 5476 5461 5446 5430 5415 5399 5383 5367 5352 5338 5324 5312 5300 5290 5282